SAULDORF Weather Reports


time (UTC)temp
F
wind
direction
speed
knots
gust
knots
rain 1hr
in
rain 24hr
in
rain mn
in
humidity
%
barometer
mb
20260506043211 45 326 3.5 0.0 0.00 0.00 0.01 96 1006.5
20260506040211 44 263 2.6 0.0 0.00 0.00 0.01 95 1006.8
20260506033211 45 263 0.0 0.0 0.00 0.00 0.01 95 1006.7
20260506030212 46 263 2.6 0.0 0.00 0.00 0.01 95 1007.2
20260506023211 47 263 2.6 0.0 0.00 0.00 0.01 95 1007.5
20260506020212 47 263 2.6 0.0 0.00 0.00 0.01 95 1007.7
20260506013211 48 263 2.6 0.0 0.00 0.00 0.00 95 1007.8
20260506010213 47 297 2.6 0.0 0.00 0.00 0.00 95 1008.2
20260506003209 48 269 3.5 0.0 0.00 0.00 0.00 95 1008.1
20260506000211 48 187 0.0 0.0 0.00 0.00 0.00 95 1008.1
20260505233209 48 187 0.9 0.0 0.00 0.00 0.00 95 1008.3
20260505230209 49 276 1.7 0.0 0.00 0.00 0.00 94 1008.4
20260505223210 49 276 2.6 0.0 0.00 0.00 0.00 94 1008.6
20260505213211 49 248 6.1 0.0 0.00 0.00 0.06 93 1008.8
20260505210215 49 227 5.2 0.0 0.00 0.00 0.06 93 1008.8
20260505203209 50 234 8.7 0.0 0.00 0.00 0.06 93 1008.7
20260505200210 50 237 8.7 0.0 0.00 0.00 0.06 93 1008.3
20260505193209 51 219 9.6 0.0 0.00 0.00 0.06 93 1008.3
20260505190215 52 227 11.3 0.0 0.00 0.00 0.06 92 1007.7
20260505183212 54 200 8.7 0.0 0.00 0.00 0.06 89 1007.3
20260505180211 55 240 7.8 0.0 0.00 0.00 0.06 84 1007.1
20260505173210 57 238 12.2 0.0 0.00 0.00 0.05 80 1007.1
20260505170210 58 243 13.0 0.0 0.00 0.00 0.05 78 1006.9
20260505163211 60 242 15.6 0.0 0.00 0.00 0.05 75 1006.8
20260505153210 63 246 10.4 0.0 0.00 0.00 0.05 69 1006.5
20260505150216 63 266 4.3 0.0 0.00 0.00 0.05 71 1006.4
20260505140210 59 83 6.1 0.0 0.00 0.00 0.05 74 1006.6
20260505130210 56 355 10.4 0.0 0.00 0.00 0.05 85 1006.7
20260505123210 56 34 7.0 0.0 0.00 0.00 0.04 85 1007.2
20260505120210 56 327 7.8 0.0 0.00 0.00 0.04 85 1007.4
20260505113210 56 281 3.5 0.0 0.00 0.00 0.02 83 1007.6
20260505110211 57 310 7.8 0.0 0.00 0.00 0.01 85 1007.0
20260505100212 56 306 6.1 0.0 0.00 0.00 0.00 80 1007.2
20260505093212 58 238 7.0 0.0 0.00 0.00 0.00 76 1007.5
20260505090212 58 259 5.2 0.0 0.00 0.00 0.00 75 1007.6
20260505083211 59 240 6.1 0.0 0.00 0.00 0.00 72 1007.6
20260505080210 58 245 2.6 0.0 0.00 0.00 0.00 72 1007.6
20260505073211 57 117 2.6 0.0 0.00 0.00 0.00 75 1007.8
20260505070211 55 76 2.6 0.0 0.00 0.00 0.00 77 1008.0
20260505063211 54 98 0.9 0.0 0.00 0.00 0.00 81 1008.2
20260505060212 52 56 3.5 0.0 0.00 0.00 0.00 85 1008.2
20260505053211 47 83 1.7 0.0 0.00 0.00 0.00 90 1008.3
20260505050211 46 355 0.9 0.0 0.00 0.00 0.00 87 1008.3